| time (UTC) | temp C | wind direction | speed KPH | gust KPH | rain 1hr cm | rain 24hr cm | rain mn cm | humidity % | barometer mb |
| 20260508054632 | 16 | 136 | 1.6 | 8.0 | 0.00 | 0.00 | 0.00 | 87 | 1016.1 |
| 20260508054056 | 16 | 149 | 1.6 | 8.0 | 0.00 | 0.00 | 0.00 | 87 | 1016.0 |
| 20260508053518 | 16 | 163 | 1.6 | 8.0 | 0.00 | 0.00 | 0.00 | 87 | 1016.1 |
| 20260508053008 | 16 | 166 | 1.6 | 8.0 | 0.00 | 0.00 | 0.00 | 87 | 1016.1 |
| 20260508052428 | 16 | 95 | 1.6 | 8.0 | 0.00 | 0.00 | 0.00 | 87 | 1016.2 |
| 20260508051919 | 16 | 97 | 0.0 | 4.8 | 0.00 | 0.00 | 0.00 | 87 | 1016.1 |
| 20260508051413 | 16 | 115 | 1.6 | 4.8 | 0.00 | 0.00 | 0.00 | 87 | 1016.2 |
| 20260508050912 | 16 | 80 | 0.0 | 4.8 | 0.00 | 0.00 | 0.00 | 87 | 1016.2 |
| 20260508050323 | 16 | 197 | 1.6 | 3.2 | 0.00 | 0.00 | 0.00 | 87 | 1016.1 |
| 20260508045816 | 16 | 179 | 1.6 | 4.8 | 0.00 | 0.00 | 0.00 | 87 | 1016.1 |
| 20260508045309 | 16 | 144 | 1.6 | 4.8 | 0.00 | 0.00 | 0.00 | 87 | 1016.1 |
| 20260508044210 | 17 | 232 | 1.6 | 4.8 | 0.00 | 0.00 | 0.00 | 87 | 1016.1 |
| 20260508043706 | 17 | 159 | 1.6 | 9.7 | 0.00 | 0.00 | 0.00 | 87 | 1016.0 |
| 20260508042634 | 17 | 167 | 3.2 | 9.7 | 0.00 | 0.00 | 0.00 | 87 | 1015.8 |
| 20260508041557 | 17 | 171 | 3.2 | 8.0 | 0.00 | 0.00 | 0.00 | 86 | 1015.6 |
| 20260508041020 | 17 | 190 | 3.2 | 12.9 | 0.00 | 0.00 | 0.00 | 86 | 1015.6 |
| 20260508040520 | 16 | 171 | 1.6 | 12.9 | 0.00 | 0.00 | 0.00 | 86 | 1015.5 |
| 20260508040017 | 16 | 136 | 1.6 | 8.0 | 0.00 | 0.00 | 0.00 | 86 | 1015.5 |
| 20260508035437 | 16 | 119 | 1.6 | 8.0 | 0.00 | 0.00 | 0.00 | 86 | 1015.4 |
| 20260508034913 | 16 | 178 | 1.6 | 6.4 | 0.00 | 0.00 | 0.00 | 86 | 1015.3 |
| 20260508034410 | 16 | 142 | 1.6 | 4.8 | 0.00 | 0.00 | 0.00 | 86 | 1015.3 |
| 20260508033823 | 16 | 136 | 1.6 | 4.8 | 0.00 | 0.00 | 0.00 | 86 | 1015.2 |
| 20260508033315 | 16 | 161 | 1.6 | 6.4 | 0.00 | 0.00 | 0.00 | 86 | 1015.1 |
| 20260508032810 | 16 | 159 | 1.6 | 6.4 | 0.00 | 0.00 | 0.00 | 85 | 1015.0 |
| 20260508032310 | 16 | 178 | 1.6 | 9.7 | 0.00 | 0.00 | 0.00 | 85 | 1015.0 |
| 20260508031708 | 16 | 146 | 1.6 | 9.7 | 0.00 | 0.00 | 0.00 | 85 | 1015.0 |
| 20260508030647 | 16 | 147 | 3.2 | 9.7 | 0.00 | 0.00 | 0.00 | 85 | 1014.9 |
| 20260508030135 | 16 | 161 | 1.6 | 8.0 | 0.00 | 0.00 | 0.00 | 85 | 1014.7 |
| 20260508025626 | 17 | 173 | 3.2 | 9.7 | 0.00 | 0.00 | 0.00 | 85 | 1014.7 |
| 20260508025118 | 17 | 174 | 3.2 | 9.7 | 0.00 | 0.00 | 0.00 | 85 | 1014.6 |
| 20260508024514 | 17 | 190 | 3.2 | 14.5 | 0.00 | 0.00 | 0.00 | 84 | 1014.5 |
| 20260508024011 | 17 | 168 | 3.2 | 14.5 | 0.00 | 0.00 | 0.00 | 84 | 1014.4 |
| 20260508023505 | 17 | 202 | 3.2 | 9.7 | 0.00 | 0.00 | 0.00 | 84 | 1014.4 |
| 20260508022416 | 17 | 159 | 1.6 | 9.7 | 0.00 | 0.00 | 0.00 | 84 | 1014.3 |
| 20260508021912 | 17 | 200 | 3.2 | 9.7 | 0.00 | 0.00 | 0.00 | 84 | 1014.4 |
| 20260508021400 | 17 | 161 | 4.8 | 9.7 | 0.00 | 0.00 | 0.00 | 84 | 1014.3 |
| 20260508020824 | 17 | 148 | 4.8 | 8.0 | 0.00 | 0.00 | 0.00 | 84 | 1014.2 |
| 20260508020310 | 17 | 174 | 4.8 | 12.9 | 0.00 | 0.00 | 0.00 | 84 | 1014.2 |
| 20260508015716 | 17 | 173 | 3.2 | 9.7 | 0.00 | 0.00 | 0.00 | 84 | 1014.2 |
| 20260508014712 | 17 | 184 | 1.6 | 9.7 | 0.00 | 0.00 | 0.00 | 84 | 1014.2 |
| 20260508014134 | 17 | 142 | 1.6 | 9.7 | 0.00 | 0.00 | 0.00 | 84 | 1014.2 |
| 20260508013629 | 17 | 121 | 3.2 | 9.7 | 0.00 | 0.00 | 0.00 | 84 | 1014.1 |
| 20260508013044 | 17 | 157 | 3.2 | 9.7 | 0.00 | 0.00 | 0.00 | 84 | 1014.2 |
| 20260508012519 | 17 | 164 | 3.2 | 8.0 | 0.00 | 0.00 | 0.00 | 83 | 1014.2 |
| 20260508012014 | 17 | 202 | 3.2 | 9.7 | 0.00 | 0.00 | 0.00 | 84 | 1014.2 |
| 20260508011515 | 17 | 227 | 4.8 | 8.0 | 0.00 | 0.00 | 0.00 | 83 | 1014.2 |
| 20260508010922 | 17 | 150 | 4.8 | 12.9 | 0.00 | 0.00 | 0.00 | 83 | 1014.3 |
| 20260508005907 | 17 | 144 | 4.8 | 11.3 | 0.00 | 0.00 | 0.00 | 83 | 1014.3 |
| 20260508005413 | 17 | 180 | 6.4 | 9.7 | 0.00 | 0.00 | 0.00 | 82 | 1014.1 |
| 20260508004821 | 17 | 177 | 6.4 | 14.5 | 0.00 | 0.00 | 0.00 | 82 | 1014.1 |
| 20260508004313 | 17 | 148 | 4.8 | 12.9 | 0.00 | 0.00 | 0.00 | 81 | 1014.2 |
| 20260508003812 | 18 | 188 | 4.8 | 12.9 | 0.00 | 0.00 | 0.00 | 81 | 1014.2 |
| 20260508002145 | 18 | 188 | 4.8 | 11.3 | 0.00 | 0.00 | 0.00 | 80 | 1014.1 |
| 20260508001634 | 18 | 217 | 4.8 | 11.3 | 0.00 | 0.00 | 0.00 | 80 | 1014.2 |
| 20260508000520 | 18 | 196 | 4.8 | 11.3 | 0.00 | 0.00 | 0.00 | 80 | 1014.2 |
| 20260508000014 | 18 | 181 | 4.8 | 9.7 | 0.00 | 0.00 | 0.00 | 79 | 1014.2 |
| 20260507235507 | 18 | 192 | 4.8 | 9.7 | 0.00 | 0.00 | 0.00 | 79 | 1014.3 |
| 20260507234927 | 18 | 205 | 3.2 | 9.7 | 0.00 | 0.00 | 0.00 | 79 | 1014.3 |
| 20260507234409 | 18 | 278 | 3.2 | 9.7 | 0.00 | 0.00 | 0.00 | 79 | 1014.2 |
| 20260507232218 | 18 | 188 | 6.4 | 9.7 | 0.00 | 0.00 | 0.00 | 78 | 1014.2 |
| 20260507231715 | 19 | 192 | 4.8 | 14.5 | 0.00 | 0.00 | 0.00 | 78 | 1014.2 |
| 20260507231215 | 19 | 188 | 4.8 | 12.9 | 0.00 | 0.00 | 0.00 | 77 | 1014.3 |
| 20260507230704 | 19 | 199 | 4.8 | 14.5 | 0.00 | 0.00 | 0.00 | 77 | 1014.3 |
| 20260507230143 | 19 | 243 | 4.8 | 14.5 | 0.00 | 0.00 | 0.00 | 77 | 1014.4 |
| 20260507225630 | 19 | 192 | 4.8 | 14.5 | 0.00 | 0.00 | 0.00 | 79 | 1014.4 |
| 20260507225023 | 18 | 163 | 3.2 | 14.5 | 0.00 | 0.00 | 0.00 | 76 | 1014.5 |
| 20260507224521 | 19 | 187 | 4.8 | 11.3 | 0.00 | 0.00 | 0.00 | 75 | 1014.5 |
| 20260507224014 | 19 | 231 | 6.4 | 11.3 | 0.00 | 0.00 | 0.00 | 76 | 1014.5 |
| 20260507223505 | 19 | 239 | 4.8 | 11.3 | 0.00 | 0.00 | 0.00 | 76 | 1014.6 |
| 20260507222432 | 19 | 227 | 4.8 | 12.9 | 0.00 | 0.00 | 0.00 | 76 | 1014.5 |
| 20260507221914 | 19 | 215 | 4.8 | 12.9 | 0.00 | 0.00 | 0.00 | 75 | 1014.6 |
| 20260507221326 | 20 | 200 | 3.2 | 14.5 | 0.00 | 0.00 | 0.00 | 75 | 1014.7 |
| 20260507220316 | 19 | 263 | 4.8 | 14.5 | 0.00 | 0.00 | 0.00 | 77 | 1014.8 |
| 20260507215757 | 19 | 224 | 6.4 | 12.9 | 0.00 | 0.00 | 0.00 | 75 | 1014.9 |
| 20260507215218 | 19 | 216 | 6.4 | 12.9 | 0.00 | 0.00 | 0.00 | 75 | 1014.9 |
| 20260507214708 | 19 | 217 | 6.4 | 16.1 | 0.00 | 0.00 | 0.00 | 75 | 1015.0 |
| 20260507214138 | 20 | 227 | 4.8 | 16.1 | 0.00 | 0.00 | 0.00 | 74 | 1015.1 |
| 20260507213628 | 20 | 233 | 6.4 | 12.9 | 0.00 | 0.00 | 0.00 | 76 | 1015.2 |
| 20260507213104 | 20 | 268 | 6.4 | 14.5 | 0.00 | 0.00 | 0.00 | 76 | 1015.3 |
| 20260507212519 | 20 | 229 | 6.4 | 14.5 | 0.00 | 0.00 | 0.00 | 74 | 1015.2 |
| 20260507211430 | 20 | 261 | 6.4 | 14.5 | 0.00 | 0.00 | 0.00 | 74 | 1015.3 |
| 20260507210916 | 20 | 211 | 6.4 | 16.1 | 0.00 | 0.00 | 0.00 | 74 | 1015.3 |
| 20260507210336 | 20 | 210 | 6.4 | 16.1 | 0.00 | 0.00 | 0.00 | 74 | 1015.3 |
| 20260507205316 | 20 | 169 | 6.4 | 17.7 | 0.00 | 0.00 | 0.00 | 74 | 1015.4 |
| 20260507204805 | 20 | 217 | 4.8 | 11.3 | 0.00 | 0.00 | 0.00 | 73 | 1015.4 |
| 20260507204211 | 20 | 214 | 6.4 | 14.5 | 0.00 | 0.00 | 0.00 | 72 | 1015.5 |
| 20260507203149 | 20 | 298 | 4.8 | 12.9 | 0.00 | 0.00 | 0.00 | 74 | 1015.5 |
| 20260507202636 | 20 | 150 | 4.8 | 14.5 | 0.00 | 0.00 | 0.00 | 73 | 1015.5 |
| 20260507201520 | 20 | 215 | 4.8 | 14.5 | 0.00 | 0.00 | 0.00 | 74 | 1015.5 |
| 20260507201014 | 20 | 198 | 6.4 | 14.5 | 0.00 | 0.00 | 0.00 | 74 | 1015.4 |
| 20260507200512 | 20 | 234 | 6.4 | 12.9 | 0.00 | 0.00 | 0.00 | 75 | 1015.5 |
| 20260507195921 | 20 | 204 | 6.4 | 14.5 | 0.00 | 0.00 | 0.00 | 75 | 1015.5 |
| 20260507194908 | 20 | 292 | 4.8 | 16.1 | 0.00 | 0.00 | 0.00 | 75 | 1015.7 |
| 20260507194411 | 20 | 270 | 6.4 | 16.1 | 0.00 | 0.00 | 0.00 | 74 | 1015.6 |
| 20260507193817 | 20 | 216 | 4.8 | 14.5 | 0.00 | 0.00 | 0.00 | 73 | 1015.6 |
| 20260507193308 | 20 | 239 | 4.8 | 12.9 | 0.00 | 0.00 | 0.00 | 74 | 1015.7 |
| 20260507192751 | 20 | 224 | 4.8 | 12.9 | 0.00 | 0.00 | 0.00 | 74 | 1015.8 |
| 20260507192220 | 20 | 71 | 4.8 | 11.3 | 0.00 | 0.00 | 0.00 | 74 | 1015.9 |
| 20260507191713 | 19 | 229 | 4.8 | 16.1 | 0.00 | 0.00 | 0.00 | 74 | 1015.9 |
| 20260507191139 | 20 | 204 | 4.8 | 16.1 | 0.00 | 0.00 | 0.00 | 73 | 1015.9 |
| 20260507190631 | 20 | 183 | 3.2 | 12.9 | 0.00 | 0.00 | 0.00 | 74 | 1016.0 |
| 20260507190123 | 20 | 234 | 3.2 | 14.5 | 0.00 | 0.00 | 0.00 | 74 | 1016.1 |
| 20260507185019 | 20 | 219 | 4.8 | 14.5 | 0.00 | 0.00 | 0.00 | 74 | 1016.2 |
| 20260507184510 | 19 | 221 | 6.4 | 14.5 | 0.00 | 0.00 | 0.00 | 74 | 1016.2 |
| 20260507183950 | 20 | 202 | 4.8 | 12.9 | 0.00 | 0.00 | 0.00 | 73 | 1016.3 |
| 20260507182918 | 20 | 219 | 4.8 | 14.5 | 0.00 | 0.00 | 0.00 | 74 | 1016.3 |
| 20260507182411 | 20 | 213 | 4.8 | 14.5 | 0.00 | 0.00 | 0.00 | 74 | 1016.3 |
| 20260507181828 | 19 | 205 | 4.8 | 11.3 | 0.00 | 0.00 | 0.00 | 76 | 1016.3 |
| 20260507181322 | 19 | 216 | 4.8 | 11.3 | 0.00 | 0.00 | 0.00 | 75 | 1016.3 |
| 20260507180813 | 19 | 226 | 4.8 | 11.3 | 0.00 | 0.00 | 0.00 | 76 | 1016.3 |
| 20260507180255 | 18 | 231 | 4.8 | 11.3 | 0.00 | 0.00 | 0.00 | 76 | 1016.3 |
| 20260507175723 | 19 | 196 | 4.8 | 11.3 | 0.00 | 0.00 | 0.00 | 77 | 1016.3 |
| 20260507175211 | 18 | 180 | 3.2 | 11.3 | 0.00 | 0.00 | 0.00 | 77 | 1016.3 |
| 20260507174640 | 18 | 221 | 3.2 | 9.7 | 0.00 | 0.00 | 0.00 | 77 | 1016.4 |
| 20260507174101 | 18 | 212 | 4.8 | 9.7 | 0.00 | 0.00 | 0.00 | 78 | 1016.4 |
| 20260507173525 | 18 | 225 | 3.2 | 11.3 | 0.00 | 0.00 | 0.00 | 77 | 1016.5 |
| 20260507173013 | 18 | 238 | 3.2 | 9.7 | 0.00 | 0.00 | 0.00 | 78 | 1016.5 |
| 20260507172422 | 18 | 211 | 3.2 | 9.7 | 0.00 | 0.00 | 0.00 | 78 | 1016.4 |
| 20260507171917 | 18 | 190 | 3.2 | 11.3 | 0.00 | 0.00 | 0.00 | 79 | 1016.4 |
| 20260507171415 | 18 | 222 | 4.8 | 11.3 | 0.00 | 0.00 | 0.00 | 81 | 1016.5 |
| 20260507170900 | 17 | 218 | 4.8 | 9.7 | 0.00 | 0.00 | 0.00 | 80 | 1016.5 |
| 20260507170324 | 17 | 219 | 3.2 | 12.9 | 0.00 | 0.00 | 0.00 | 79 | 1016.5 |
| 20260507165813 | 17 | 227 | 3.2 | 12.9 | 0.00 | 0.00 | 0.00 | 81 | 1016.5 |
| 20260507164709 | 17 | 225 | 3.2 | 6.4 | 0.00 | 0.00 | 0.00 | 80 | 1016.5 |
| 20260507164144 | 17 | 226 | 3.2 | 9.7 | 0.00 | 0.00 | 0.00 | 81 | 1016.6 |
| 20260507163629 | 17 | 200 | 3.2 | 8.0 | 0.00 | 0.00 | 0.00 | 82 | 1016.6 |
| 20260507163024 | 17 | 226 | 3.2 | 4.8 | 0.00 | 0.00 | 0.00 | 82 | 1016.5 |
| 20260507162517 | 17 | 181 | 3.2 | 8.0 | 0.00 | 0.00 | 0.00 | 82 | 1016.5 |
| 20260507160918 | 17 | 272 | 1.6 | 6.4 | 0.00 | 0.00 | 0.00 | 83 | 1016.5 |
| 20260507160417 | 16 | 292 | 3.2 | 8.0 | 0.00 | 0.00 | 0.00 | 83 | 1016.5 |
| 20260507155911 | 16 | 231 | 3.2 | 9.7 | 0.00 | 0.00 | 0.00 | 84 | 1016.5 |
| 20260507155340 | 16 | 225 | 3.2 | 9.7 | 0.00 | 0.00 | 0.00 | 84 | 1016.6 |
| 20260507154817 | 16 | 232 | 3.2 | 8.0 | 0.00 | 0.00 | 0.00 | 84 | 1016.6 |
| 20260507154311 | 16 | 175 | 3.2 | 8.0 | 0.00 | 0.00 | 0.00 | 85 | 1016.6 |
| 20260507153807 | 16 | 208 | 1.6 | 6.4 | 0.00 | 0.00 | 0.00 | 84 | 1016.8 |
| 20260507153229 | 16 | 194 | 1.6 | 6.4 | 0.00 | 0.00 | 0.00 | 85 | 1016.8 |
| 20260507152711 | 16 | 183 | 3.2 | 6.4 | 0.00 | 0.00 | 0.00 | 85 | 1016.8 |
| 20260507152206 | 15 | 196 | 3.2 | 6.4 | 0.00 | 0.00 | 0.00 | 84 | 1016.8 |
| 20260507151642 | 15 | 186 | 1.6 | 6.4 | 0.00 | 0.00 | 0.00 | 84 | 1016.8 |
| 20260507151125 | 15 | 199 | 1.6 | 4.8 | 0.00 | 0.00 | 0.00 | 84 | 1016.8 |
| 20260507150517 | 15 | 195 | 1.6 | 4.8 | 0.00 | 0.00 | 0.00 | 85 | 1016.7 |
| 20260507150007 | 15 | 195 | 0.0 | 3.2 | 0.00 | 0.00 | 0.00 | 85 | 1016.6 |
| 20260507145502 | 15 | 217 | 0.0 | 3.2 | 0.00 | 0.00 | 0.00 | 85 | 1016.6 |
| 20260507144921 | 15 | 189 | 0.0 | 3.2 | 0.00 | 0.00 | 0.00 | 85 | 1016.5 |
| 20260507144403 | 15 | 189 | 0.0 | 3.2 | 0.00 | 0.00 | 0.00 | 86 | 1016.5 |
| 20260507143824 | 15 | 355 | 0.0 | 0.0 | 0.00 | 0.00 | 0.00 | 87 | 1016.5 |
| 20260507143315 | 14 | 355 | 0.0 | 0.0 | 0.00 | 0.00 | 0.00 | 88 | 1016.4 |
| 20260507142746 | 13 | 355 | 0.0 | 0.0 | 0.00 | 0.00 | 0.00 | 88 | 1016.4 |
| 20260507142217 | 13 | 355 | 0.0 | 0.0 | 0.00 | 0.00 | 0.00 | 88 | 1016.4 |
| 20260507141704 | 13 | 355 | 0.0 | 0.0 | 0.00 | 0.00 | 0.00 | 88 | 1016.3 |
| 20260507141135 | 13 | 355 | 0.0 | 0.0 | 0.00 | 0.00 | 0.00 | 88 | 1016.2 |
| 20260507140545 | 13 | 355 | 0.0 | 0.0 | 0.00 | 0.00 | 0.00 | 88 | 1016.2 |
| 20260507140017 | 13 | 355 | 0.0 | 0.0 | 0.00 | 0.00 | 0.00 | 87 | 1016.2 |
| 20260507135514 | 12 | 355 | 0.0 | 0.0 | 0.00 | 0.00 | 0.00 | 87 | 1016.1 |
| 20260507135019 | 12 | 355 | 0.0 | 0.0 | 0.00 | 0.00 | 0.00 | 87 | 1016.1 |
| 20260507134516 | 12 | 355 | 0.0 | 0.0 | 0.00 | 0.00 | 0.00 | 87 | 1016.0 |
| 20260507133939 | 12 | 355 | 0.0 | 0.0 | 0.00 | 0.00 | 0.00 | 87 | 1015.9 |
| 20260507133423 | 12 | 355 | 0.0 | 0.0 | 0.00 | 0.00 | 0.00 | 87 | 1015.8 |
| 20260507132914 | 12 | 355 | 0.0 | 0.0 | 0.00 | 0.00 | 0.00 | 87 | 1015.8 |
| 20260507132408 | 12 | 355 | 0.0 | 0.0 | 0.00 | 0.00 | 0.00 | 86 | 1015.7 |
| 20260507131823 | 12 | 355 | 0.0 | 0.0 | 0.00 | 0.00 | 0.00 | 86 | 1015.7 |
| 20260507131315 | 12 | 355 | 0.0 | 0.0 | 0.00 | 0.00 | 0.00 | 86 | 1015.7 |
| 20260507125704 | 12 | 355 | 0.0 | 0.0 | 0.00 | 0.00 | 0.00 | 86 | 1015.7 |
| 20260507125136 | 12 | 355 | 0.0 | 0.0 | 0.00 | 0.00 | 0.00 | 86 | 1015.6 |
| 20260507124631 | 12 | 355 | 0.0 | 0.0 | 0.00 | 0.00 | 0.00 | 86 | 1015.6 |
| 20260507124124 | 12 | 355 | 0.0 | 0.0 | 0.00 | 0.00 | 0.00 | 86 | 1015.6 |
| 20260507123612 | 12 | 355 | 0.0 | 0.0 | 0.00 | 0.00 | 0.00 | 86 | 1015.6 |
| 20260507122522 | 12 | 355 | 0.0 | 0.0 | 0.00 | 0.00 | 0.00 | 86 | 1015.6 |
| 20260507121939 | 13 | 355 | 0.0 | 0.0 | 0.00 | 0.00 | 0.00 | 86 | 1015.6 |
| 20260507121422 | 13 | 355 | 0.0 | 0.0 | 0.00 | 0.00 | 0.00 | 86 | 1015.6 |
| 20260507120913 | 13 | 355 | 0.0 | 0.0 | 0.00 | 0.00 | 0.00 | 86 | 1015.6 |
| 20260507120411 | 13 | 355 | 0.0 | 0.0 | 0.00 | 0.00 | 0.00 | 86 | 1015.6 |
| 20260507115824 | 13 | 355 | 0.0 | 0.0 | 0.00 | 0.00 | 0.00 | 86 | 1015.6 |
| 20260507115319 | 13 | 355 | 0.0 | 0.0 | 0.00 | 0.00 | 0.00 | 86 | 1015.6 |
| 20260507114815 | 13 | 355 | 0.0 | 0.0 | 0.00 | 0.00 | 0.00 | 85 | 1015.6 |
| 20260507114311 | 13 | 355 | 0.0 | 0.0 | 0.00 | 0.00 | 0.00 | 85 | 1015.6 |
| 20260507113210 | 13 | 355 | 0.0 | 0.0 | 0.00 | 0.00 | 0.00 | 85 | 1015.6 |
| 20260507112706 | 13 | 355 | 0.0 | 0.0 | 0.00 | 0.00 | 0.00 | 85 | 1015.7 |
| 20260507112143 | 13 | 355 | 0.0 | 0.0 | 0.00 | 0.00 | 0.00 | 85 | 1015.7 |
| 20260507111632 | 13 | 355 | 0.0 | 0.0 | 0.00 | 0.00 | 0.00 | 85 | 1015.8 |
| 20260507111025 | 13 | 355 | 0.0 | 0.0 | 0.00 | 0.00 | 0.00 | 84 | 1015.8 |
| 20260507110522 | 13 | 355 | 0.0 | 0.0 | 0.00 | 0.00 | 0.00 | 84 | 1015.8 |
| 20260507110009 | 13 | 355 | 0.0 | 0.0 | 0.00 | 0.00 | 0.00 | 84 | 1015.9 |
| 20260507105457 | 13 | 355 | 0.0 | 0.0 | 0.00 | 0.00 | 0.00 | 84 | 1016.0 |
| 20260507104916 | 13 | 355 | 0.0 | 0.0 | 0.00 | 0.00 | 0.00 | 84 | 1016.0 |
| 20260507104420 | 13 | 355 | 0.0 | 0.0 | 0.00 | 0.00 | 0.00 | 84 | 1015.9 |
| 20260507103919 | 13 | 355 | 0.0 | 0.0 | 0.00 | 0.00 | 0.00 | 84 | 1016.0 |
| 20260507102902 | 13 | 355 | 0.0 | 0.0 | 0.00 | 0.00 | 0.00 | 83 | 1015.9 |
| 20260507102322 | 13 | 355 | 0.0 | 0.0 | 0.00 | 0.00 | 0.00 | 83 | 1016.0 |
| 20260507101818 | 13 | 355 | 0.0 | 0.0 | 0.00 | 0.00 | 0.00 | 83 | 1016.0 |
| 20260507101310 | 13 | 355 | 0.0 | 0.0 | 0.00 | 0.00 | 0.00 | 83 | 1015.9 |
| 20260507100225 | 13 | 355 | 0.0 | 0.0 | 0.00 | 0.00 | 0.00 | 82 | 1015.9 |
| 20260507095712 | 13 | 355 | 0.0 | 0.0 | 0.00 | 0.00 | 0.00 | 82 | 1016.0 |
| 20260507094636 | 14 | 355 | 0.0 | 0.0 | 0.00 | 0.00 | 0.00 | 82 | 1016.0 |
| 20260507094136 | 14 | 355 | 0.0 | 0.0 | 0.00 | 0.00 | 0.00 | 82 | 1016.1 |
| 20260507093630 | 14 | 355 | 0.0 | 0.0 | 0.00 | 0.00 | 0.00 | 82 | 1016.1 |
| 20260507093102 | 14 | 355 | 0.0 | 0.0 | 0.00 | 0.00 | 0.00 | 82 | 1016.2 |
| 20260507092519 | 14 | 355 | 0.0 | 0.0 | 0.00 | 0.00 | 0.00 | 82 | 1016.2 |
| 20260507092006 | 14 | 355 | 0.0 | 0.0 | 0.00 | 0.00 | 0.00 | 81 | 1016.2 |
| 20260507090915 | 14 | 355 | 0.0 | 0.0 | 0.00 | 0.00 | 0.00 | 81 | 1016.4 |
| 20260507090352 | 14 | 355 | 0.0 | 0.0 | 0.00 | 0.00 | 0.00 | 81 | 1016.5 |
| 20260507085316 | 14 | 355 | 0.0 | 0.0 | 0.00 | 0.00 | 0.00 | 81 | 1016.5 |
| 20260507084809 | 14 | 355 | 0.0 | 0.0 | 0.00 | 0.00 | 0.00 | 80 | 1016.8 |
| 20260507083720 | 14 | 355 | 0.0 | 0.0 | 0.00 | 0.00 | 0.00 | 80 | 1016.8 |
| 20260507083210 | 14 | 355 | 0.0 | 0.0 | 0.00 | 0.00 | 0.00 | 80 | 1016.7 |
| 20260507082642 | 14 | 355 | 0.0 | 0.0 | 0.00 | 0.00 | 0.00 | 79 | 1016.9 |
| 20260507082056 | 15 | 355 | 0.0 | 0.0 | 0.00 | 0.00 | 0.00 | 79 | 1016.9 |
| 20260507081532 | 15 | 355 | 0.0 | 0.0 | 0.00 | 0.00 | 0.00 | 79 | 1017.0 |
| 20260507081018 | 15 | 355 | 0.0 | 0.0 | 0.00 | 0.00 | 0.00 | 79 | 1017.0 |
| 20260507080510 | 15 | 355 | 0.0 | 0.0 | 0.00 | 0.00 | 0.00 | 79 | 1017.1 |
| 20260507075418 | 15 | 355 | 0.0 | 0.0 | 0.00 | 0.00 | 0.00 | 78 | 1017.0 |
| 20260507074916 | 15 | 355 | 0.0 | 0.0 | 0.00 | 0.00 | 0.00 | 78 | 1017.0 |
| 20260507074414 | 15 | 355 | 0.0 | 0.0 | 0.00 | 0.00 | 0.00 | 78 | 1016.9 |
| 20260507073906 | 15 | 355 | 0.0 | 0.0 | 0.00 | 0.00 | 0.00 | 78 | 1016.9 |
| 20260507073345 | 15 | 355 | 0.0 | 0.0 | 0.00 | 0.00 | 0.00 | 78 | 1016.9 |
| 20260507072815 | 15 | 355 | 0.0 | 0.0 | 0.00 | 0.00 | 0.00 | 78 | 1016.9 |
| 20260507072257 | 15 | 355 | 0.0 | 0.0 | 0.00 | 0.00 | 0.00 | 78 | 1016.9 |
| 20260507071717 | 15 | 355 | 0.0 | 0.0 | 0.00 | 0.00 | 0.00 | 78 | 1017.0 |
| 20260507071206 | 15 | 355 | 0.0 | 1.6 | 0.00 | 0.00 | 0.00 | 78 | 1017.0 |
| 20260507070641 | 15 | 355 | 0.0 | 1.6 | 0.00 | 0.00 | 0.00 | 78 | 1017.0 |
| 20260507070126 | 16 | 355 | 0.0 | 1.6 | 0.00 | 0.00 | 0.00 | 77 | 1017.1 |
| 20260507065618 | 16 | 355 | 0.0 | 1.6 | 0.00 | 0.00 | 0.00 | 77 | 1017.0 |
| 20260507065015 | 16 | 355 | 0.0 | 3.2 | 0.00 | 0.00 | 0.00 | 77 | 1017.1 |
| 20260507064431 | 16 | 346 | 0.0 | 1.6 | 0.00 | 0.00 | 0.00 | 77 | 1017.0 |
| 20260507063911 | 16 | 351 | 0.0 | 1.6 | 0.00 | 0.00 | 0.00 | 77 | 1017.1 |
| 20260507063407 | 16 | 351 | 0.0 | 0.0 | 0.00 | 0.00 | 0.00 | 76 | 1017.2 |
| 20260507062823 | 16 | 351 | 0.0 | 1.6 | 0.00 | 0.00 | 0.00 | 76 | 1017.2 |
| 20260507062318 | 16 | 351 | 0.0 | 1.6 | 0.00 | 0.00 | 0.00 | 76 | 1017.1 |
| 20260507061217 | 16 | 323 | 0.0 | 1.6 | 0.00 | 0.00 | 0.00 | 75 | 1017.2 |
| 20260507060700 | 16 | 298 | 0.0 | 1.6 | 0.00 | 0.00 | 0.00 | 75 | 1017.2 |
| 20260507060143 | 16 | 9 | 0.0 | 0.0 | 0.00 | 0.00 | 0.00 | 75 | 1017.3 |
| 20260507055631 | 16 | 9 | 0.0 | 0.0 | 0.00 | 0.00 | 0.00 | 75 | 1017.2 |
| 20260507055055 | 16 | 9 | 0.0 | 0.0 | 0.00 | 0.00 | 0.00 | 75 | 1017.2 |